Location: Dehesa de la Cepeda
(40.6574°N, 4.3013°W)
Time: 20:19:17
(UTC+00:00)

Vanguard 2 Rocket - Pass Details

Date: 06 August 2021
Orbit: 556 x 3324 km, 32.9° (Epoch: 19 September)

Event Time Altitude Azimuth Distance (km) Brightness Sun altitude
Rises 09:41:14 0° 260° (W) 2,746 9.0 47.6°
Reaches altitude 10° 09:43:50 10° 242° (WSW) 1,827 8.3 48.1°
Maximum altitude 09:46:49 20° 192° (SSW) 1,356 8.2 48.6°
Drops below altitude 10° 09:50:10 10° 144° (SE) 2,088 9.5 49.2°
Sets 09:53:24 0° 128° (SE) 3,288 10.4 49.8°
